Tracking 21082 objects as of 5-Aug-2020
HD Live streaming from Space Station
objects crossing your sky now

SL-8 DEB *

Track SL-8 DEB * now!
10-day predictions


NORAD ID: 14345
Int'l Code: 1979-089C
Perigee: 679.7 km
Apogee: 692.6 km
Inclination: 74.0 °
Period: 98.3 minutes
Semi major axis: 7057 km
RCS: 0.0065 m2 (small)
Launch date: October 11, 1979
Source: Commonwealth of Independent States (former USSR) (CIS)
Launch site: PLESETSK MISSILE AND SPACE COMPLEX (PKMTR)

Note: This is SATELLITE DEBRIS
aabbcc
Your satellite tracking list
Your tracking list is empty




NASA's NSSDC Master Catalog

Two Line Element Set (TLE):
1 14345U 79089C   20217.59647510  .00000229  00000-0  49092-4 0  9990
2 14345  74.0233 152.5098 0009166   2.4764 172.3446 14.64398542963970
Source of the keplerian elements: AFSPC